Location: Unspecified
(0.0000°N, 0.0000°E)
Time: 00:18:11
(UTC+01:00)

GPS 2-12 Rocket1 - Visible Passes

Search period start: 21 February 2018 00:00
Search period end: 03 March 2018 00:00
Orbit: 587 x 652 km, 20.0° (Epoch: 20 February)

Date Brightness Start Highest point End Pass type
(mag) Time Alt. Az. Time Alt. Az. Time Alt. Az.
25 Feb 5.7 21:03:50 10° NNW 21:03:55 10° NNW 21:03:55 10° NNW visible
26 Feb 5.8 21:19:01 10° NNW 21:19:11 11° NNW 21:19:11 11° NNW visible
27 Feb 5.3 19:52:55 10° N 19:54:58 13° NNE 19:57:01 10° NE visible
28 Feb 4.8 20:07:58 10° NNW 20:11:17 19° NNE 20:12:50 16° NE visible
01 Mar 4.1 20:23:25 10° NW 20:27:31 29° NNE 20:28:13 28° NE visible
02 Mar 3.4 20:39:07 10° NW 20:43:38 48° NNE 20:43:38 48° NNE visible
